TE11 weather

Life Flight/Refuel Heliport
Houston, Texas, United States

Public forecast

Using degrees Fahrenheit for public forecast. Weather courtesy of forecast.io.

METAR (pilot weather report)

Closest report is Houston Southwest Airport, 4.3 nm (8.0 km) SSW. Retrieved 2019/07/21 05:35 UTC (25 minutes ago):

KAXH 210535Z AUTO 00000KT 10SM CLR 25/25 A2996 RMK AO2 T02530245

TAF (pilot weather forecast)

Forecast is more than 12 hours old.

Closest forecast is William P Hobby Airport, 9.5 nm (17.5 km) ENE. Retrieved 2019/07/20 00:33 UTC (1 day ago):

TAF KHOU 202330Z 2100/2124 16012KT P6SM SCT045 BKN250 FM210100 16006KT P6SM FEW025 SCT250 FM211500 20006KT P6SM VCSH SCT025 BKN035 FM211700 18007KT P6SM VCTS SCT040CB PROB30 2117/2121 VRB10G27KT TSRA BKN035CB OVC060 FM212300 VRB06KT P6SM VCSH SCT040 BKN080 OVC250